����������;��������(kVARh)
2019-05-06 00:00;0
2019-05-06 00:15;0
2019-05-06 00:30;0
2019-05-06 00:45;0
2019-05-06 01:00;0
2019-05-06 01:15;0
2019-05-06 01:30;0
2019-05-06 01:45;0
2019-05-06 02:00;0
2019-05-06 02:15;0
2019-05-06 02:30;0
2019-05-06 02:45;0
2019-05-06 03:00;0
2019-05-06 03:15;0
2019-05-06 03:30;0
2019-05-06 03:45;0
2019-05-06 04:00;0
2019-05-06 04:15;0
2019-05-06 04:30;0
2019-05-06 04:45;0
2019-05-06 05:00;0
2019-05-06 05:15;0
2019-05-06 05:30;0
2019-05-06 05:45;0
2019-05-06 06:00;0
2019-05-06 06:15;0
2019-05-06 06:30;0
2019-05-06 06:45;0
2019-05-06 07:00;0
2019-05-06 07:15;0,2
2019-05-06 07:30;0
2019-05-06 07:45;0
2019-05-06 08:00;0
2019-05-06 08:15;0,1
2019-05-06 08:30;0,5
2019-05-06 08:45;2,4
2019-05-06 09:00;5,55
2019-05-06 09:15;7,75
2019-05-06 09:30;9,55
2019-05-06 09:45;12,3
2019-05-06 10:00;15,25
2019-05-06 10:15;15,4
2019-05-06 10:30;17,3
2019-05-06 10:45;17
2019-05-06 11:00;18,05
2019-05-06 11:15;20,6
2019-05-06 11:30;21,55
2019-05-06 11:45;23,15
2019-05-06 12:00;22,65
2019-05-06 12:15;22,3
2019-05-06 12:30;21,7
2019-05-06 12:45;21,4
2019-05-06 13:00;21,25
2019-05-06 13:15;20,35
2019-05-06 13:30;20,65
2019-05-06 13:45;20
2019-05-06 14:00;19,1
2019-05-06 14:15;18,3
2019-05-06 14:30;18,2
2019-05-06 14:45;18,25
2019-05-06 15:00;19,9
2019-05-06 15:15;18,85
2019-05-06 15:30;16,45
2019-05-06 15:45;15,9
2019-05-06 16:00;16,55
2019-05-06 16:15;14,85
2019-05-06 16:30;16
2019-05-06 16:45;14,55
2019-05-06 17:00;13,25
2019-05-06 17:15;12,95
2019-05-06 17:30;12,9
2019-05-06 17:45;11,15
2019-05-06 18:00;7,8
2019-05-06 18:15;7,6
2019-05-06 18:30;6,9
2019-05-06 18:45;7,45
2019-05-06 19:00;7,05
2019-05-06 19:15;6,8
2019-05-06 19:30;5,6
2019-05-06 19:45;7,3
2019-05-06 20:00;4,95
2019-05-06 20:15;4,85
2019-05-06 20:30;1,7
2019-05-06 20:45;0,6
2019-05-06 21:00;0,2
2019-05-06 21:15;0,9
2019-05-06 21:30;0,7
2019-05-06 21:45;0,2
2019-05-06 22:00;0,05
2019-05-06 22:15;0
2019-05-06 22:30;0
2019-05-06 22:45;0
2019-05-06 23:00;0
2019-05-06 23:15;0
2019-05-06 23:30;0
2019-05-06 23:45;0
2019-05-07 00:00;0
2019-05-07 00:15;0
2019-05-07 00:30;0
2019-05-07 00:45;0
2019-05-07 01:00;0
2019-05-07 01:15;0
2019-05-07 01:30;0
2019-05-07 01:45;0
2019-05-07 02:00;0
2019-05-07 02:15;0
2019-05-07 02:30;0
2019-05-07 02:45;0
2019-05-07 03:00;0
2019-05-07 03:15;0
2019-05-07 03:30;0
2019-05-07 03:45;0
2019-05-07 04:00;0
2019-05-07 04:15;0
2019-05-07 04:30;0
2019-05-07 04:45;0
2019-05-07 05:00;0
2019-05-07 05:15;0
2019-05-07 05:30;0
2019-05-07 05:45;0
2019-05-07 06:00;0
2019-05-07 06:15;0
2019-05-07 06:30;0
2019-05-07 06:45;0
2019-05-07 07:00;0
2019-05-07 07:15;0
2019-05-07 07:30;0
2019-05-07 07:45;0
2019-05-07 08:00;1,3
2019-05-07 08:15;4,65
2019-05-07 08:30;2,7
2019-05-07 08:45;5,35
2019-05-07 09:00;5,8
2019-05-07 09:15;7,25
2019-05-07 09:30;9,1
2019-05-07 09:45;15,05
2019-05-07 10:00;15,85
2019-05-07 10:15;16,9
2019-05-07 10:30;19,25
2019-05-07 10:45;18,55
2019-05-07 11:00;19,3
2019-05-07 11:15;19,7
2019-05-07 11:30;20,55
2019-05-07 11:45;20,25
2019-05-07 12:00;21,8
2019-05-07 12:15;20,85
2019-05-07 12:30;22,4
2019-05-07 12:45;24,8
2019-05-07 13:00;24,75
2019-05-07 13:15;27,5
2019-05-07 13:30;27,2
2019-05-07 13:45;27,6
2019-05-07 14:00;30,7
2019-05-07 14:15;30,9
2019-05-07 14:30;30,05
2019-05-07 14:45;30,95
2019-05-07 15:00;29,6
2019-05-07 15:15;26,3
2019-05-07 15:30;23,4
2019-05-07 15:45;21,7
2019-05-07 16:00;18
2019-05-07 16:15;16,9
2019-05-07 16:30;14,35
2019-05-07 16:45;15,15
2019-05-07 17:00;14,55
2019-05-07 17:15;15,25
2019-05-07 17:30;15,15
2019-05-07 17:45;13,05
2019-05-07 18:00;10,45
2019-05-07 18:15;6,85
2019-05-07 18:30;6,55
2019-05-07 18:45;12,25
2019-05-07 19:00;13,75
2019-05-07 19:15;12,6
2019-05-07 19:30;10,05
2019-05-07 19:45;12,25
2019-05-07 20:00;12,6
2019-05-07 20:15;10,55
2019-05-07 20:30;8,3
2019-05-07 20:45;7
2019-05-07 21:00;7,05
2019-05-07 21:15;8,8
2019-05-07 21:30;7,95
2019-05-07 21:45;5,6
2019-05-07 22:00;4,4
2019-05-07 22:15;5,15
2019-05-07 22:30;1,85
2019-05-07 22:45;2
2019-05-07 23:00;0,85
2019-05-07 23:15;0,05
2019-05-07 23:30;0
2019-05-07 23:45;0
2019-05-08 00:00;0
2019-05-08 00:15;0
2019-05-08 00:30;0
2019-05-08 00:45;0
2019-05-08 01:00;0
2019-05-08 01:15;0
2019-05-08 01:30;0
2019-05-08 01:45;0,85
2019-05-08 02:00;0,2
2019-05-08 02:15;0,15
2019-05-08 02:30;0,25
2019-05-08 02:45;0,45
2019-05-08 03:00;0
2019-05-08 03:15;0
2019-05-08 03:30;0
2019-05-08 03:45;0
2019-05-08 04:00;0
2019-05-08 04:15;0
2019-05-08 04:30;0
2019-05-08 04:45;0
2019-05-08 05:00;0
2019-05-08 05:15;0
2019-05-08 05:30;0
2019-05-08 05:45;0
2019-05-08 06:00;0
2019-05-08 06:15;0
2019-05-08 06:30;0
2019-05-08 06:45;0
2019-05-08 07:00;0
2019-05-08 07:15;0,15
2019-05-08 07:30;0
2019-05-08 07:45;0
2019-05-08 08:00;0
2019-05-08 08:15;0
2019-05-08 08:30;0,2
2019-05-08 08:45;7,25
2019-05-08 09:00;10,8
2019-05-08 09:15;15,2
2019-05-08 09:30;17
2019-05-08 09:45;17,2
2019-05-08 10:00;17,65
2019-05-08 10:15;20,3
2019-05-08 10:30;23
2019-05-08 10:45;27,7
2019-05-08 11:00;25,3
2019-05-08 11:15;24,75
2019-05-08 11:30;28,8
2019-05-08 11:45;28,65
2019-05-08 12:00;30,8
2019-05-08 12:15;31,75
2019-05-08 12:30;31,8
2019-05-08 12:45;31,5
2019-05-08 13:00;30,2
2019-05-08 13:15;27,75
2019-05-08 13:30;25,9
2019-05-08 13:45;25,55
2019-05-08 14:00;28,75
2019-05-08 14:15;28,7
2019-05-08 14:30;28,3
2019-05-08 14:45;29
2019-05-08 15:00;26,5
2019-05-08 15:15;25,65
2019-05-08 15:30;27,3
2019-05-08 15:45;25,95
2019-05-08 16:00;25,4
2019-05-08 16:15;24,15
2019-05-08 16:30;20,6
2019-05-08 16:45;19,4
2019-05-08 17:00;23,2
2019-05-08 17:15;22,85
2019-05-08 17:30;22,45
2019-05-08 17:45;17,2
2019-05-08 18:00;16,4
2019-05-08 18:15;17,05
2019-05-08 18:30;16,85
2019-05-08 18:45;12,3
2019-05-08 19:00;11,55
2019-05-08 19:15;10,65
2019-05-08 19:30;9,5
2019-05-08 19:45;13,25
2019-05-08 20:00;12,55
2019-05-08 20:15;10,75
2019-05-08 20:30;9,85
2019-05-08 20:45;8,5
2019-05-08 21:00;9,65
2019-05-08 21:15;9,75
2019-05-08 21:30;8,4
2019-05-08 21:45;5,05
2019-05-08 22:00;5,15
2019-05-08 22:15;5,65
2019-05-08 22:30;7,35
2019-05-08 22:45;10,3
2019-05-08 23:00;13,1
2019-05-08 23:15;9,9
2019-05-08 23:30;8,1
2019-05-08 23:45;5,2
2019-05-09 00:00;4,5
2019-05-09 00:15;4,25
2019-05-09 00:30;0,95
2019-05-09 00:45;0,6
2019-05-09 01:00;0
2019-05-09 01:15;0
2019-05-09 01:30;0
2019-05-09 01:45;0
2019-05-09 02:00;0
2019-05-09 02:15;0
2019-05-09 02:30;0,45
2019-05-09 02:45;0
2019-05-09 03:00;0
2019-05-09 03:15;0,05
2019-05-09 03:30;0,05
2019-05-09 03:45;0
2019-05-09 04:00;0
2019-05-09 04:15;0
2019-05-09 04:30;0
2019-05-09 04:45;0
2019-05-09 05:00;0
2019-05-09 05:15;0
2019-05-09 05:30;0
2019-05-09 05:45;0
2019-05-09 06:00;0
2019-05-09 06:15;0
2019-05-09 06:30;0
2019-05-09 06:45;1,65
2019-05-09 07:00;2,4
2019-05-09 07:15;1
2019-05-09 07:30;0,75
2019-05-09 07:45;1,85
2019-05-09 08:00;0,9
2019-05-09 08:15;1
2019-05-09 08:30;1,8
2019-05-09 08:45;3,2
2019-05-09 09:00;7,25
2019-05-09 09:15;21,85
2019-05-09 09:30;23,4
2019-05-09 09:45;24,05
2019-05-09 10:00;27,85
2019-05-09 10:15;25,65
2019-05-09 10:30;21,65
2019-05-09 10:45;22,55
2019-05-09 11:00;25
2019-05-09 11:15;27,75
2019-05-09 11:30;26,8
2019-05-09 11:45;25,45
2019-05-09 12:00;26,35
2019-05-09 12:15;27,15
2019-05-09 12:30;25,4
2019-05-09 12:45;24,3
2019-05-09 13:00;23,9
2019-05-09 13:15;22,65
2019-05-09 13:30;23,35
2019-05-09 13:45;24,95
2019-05-09 14:00;24,15
2019-05-09 14:15;23,1
2019-05-09 14:30;22,85
2019-05-09 14:45;26,15
2019-05-09 15:00;26,5
2019-05-09 15:15;21,85
2019-05-09 15:30;17,85
2019-05-09 15:45;17,85
2019-05-09 16:00;16,7
2019-05-09 16:15;16,5
2019-05-09 16:30;14,8
2019-05-09 16:45;13,2
2019-05-09 17:00;13,4
2019-05-09 17:15;13,85
2019-05-09 17:30;13,75
2019-05-09 17:45;15,95
2019-05-09 18:00;15,9
2019-05-09 18:15;18,2
2019-05-09 18:30;15,25
2019-05-09 18:45;11
2019-05-09 19:00;9,55
2019-05-09 19:15;7,55
2019-05-09 19:30;7,4
2019-05-09 19:45;6,7
2019-05-09 20:00;6,95
2019-05-09 20:15;7,65
2019-05-09 20:30;4,2
2019-05-09 20:45;1,75
2019-05-09 21:00;1,75
2019-05-09 21:15;4,8
2019-05-09 21:30;5,85
2019-05-09 21:45;3,55
2019-05-09 22:00;0,15
2019-05-09 22:15;0,5
2019-05-09 22:30;1,6
2019-05-09 22:45;0,65
2019-05-09 23:00;1,2
2019-05-09 23:15;0,2
2019-05-09 23:30;0,9
2019-05-09 23:45;0,75
2019-05-10 00:00;0
2019-05-10 00:15;0
2019-05-10 00:30;0
2019-05-10 00:45;0
2019-05-10 01:00;0
2019-05-10 01:15;0
2019-05-10 01:30;0
2019-05-10 01:45;0
2019-05-10 02:00;0
2019-05-10 02:15;0
2019-05-10 02:30;0
2019-05-10 02:45;0
2019-05-10 03:00;0
2019-05-10 03:15;0
2019-05-10 03:30;0
2019-05-10 03:45;0
2019-05-10 04:00;0
2019-05-10 04:15;0
2019-05-10 04:30;0
2019-05-10 04:45;0
2019-05-10 05:00;0
2019-05-10 05:15;0
2019-05-10 05:30;0
2019-05-10 05:45;0
2019-05-10 06:00;0
2019-05-10 06:15;0
2019-05-10 06:30;0
2019-05-10 06:45;0
2019-05-10 07:00;0,05
2019-05-10 07:15;0
2019-05-10 07:30;0,3
2019-05-10 07:45;0,55
2019-05-10 08:00;0,7
2019-05-10 08:15;5,25
2019-05-10 08:30;5,1
2019-05-10 08:45;6,9
2019-05-10 09:00;8,4
2019-05-10 09:15;10,65
2019-05-10 09:30;9,25
2019-05-10 09:45;14,05
2019-05-10 10:00;22,15
2019-05-10 10:15;24,2
2019-05-10 10:30;25,75
2019-05-10 10:45;25,85
2019-05-10 11:00;26,9
2019-05-10 11:15;28,2
2019-05-10 11:30;29,95
2019-05-10 11:45;32,2
2019-05-10 12:00;29,75
2019-05-10 12:15;27,15
2019-05-10 12:30;29
2019-05-10 12:45;26,6
2019-05-10 13:00;27,65
2019-05-10 13:15;24,35
2019-05-10 13:30;24,65
2019-05-10 13:45;24,5
2019-05-10 14:00;23,55
2019-05-10 14:15;24,85
2019-05-10 14:30;25,5
2019-05-10 14:45;25,9
2019-05-10 15:00;22,7
2019-05-10 15:15;19,85
2019-05-10 15:30;21,6
2019-05-10 15:45;22,65
2019-05-10 16:00;23,8
2019-05-10 16:15;24,35
2019-05-10 16:30;21,65
2019-05-10 16:45;21,25
2019-05-10 17:00;20,55
2019-05-10 17:15;17,3
2019-05-10 17:30;15,9
2019-05-10 17:45;15,4
2019-05-10 18:00;12,8
2019-05-10 18:15;12,9
2019-05-10 18:30;12,8
2019-05-10 18:45;13,25
2019-05-10 19:00;14,65
2019-05-10 19:15;16,1
2019-05-10 19:30;15,95
2019-05-10 19:45;14
2019-05-10 20:00;10,75
2019-05-10 20:15;11,25
2019-05-10 20:30;8,85
2019-05-10 20:45;6,4
2019-05-10 21:00;5,65
2019-05-10 21:15;6,35
2019-05-10 21:30;6,65
2019-05-10 21:45;6,45
2019-05-10 22:00;6,55
2019-05-10 22:15;6,65
2019-05-10 22:30;7,65
2019-05-10 22:45;9,9
2019-05-10 23:00;12,3
2019-05-10 23:15;4,05
2019-05-10 23:30;0
2019-05-10 23:45;0,35
2019-05-11 00:00;0,15
2019-05-11 00:15;0,25
2019-05-11 00:30;0
2019-05-11 00:45;0
2019-05-11 01:00;0
2019-05-11 01:15;0
2019-05-11 01:30;0
2019-05-11 01:45;0
2019-05-11 02:00;0
2019-05-11 02:15;0
2019-05-11 02:30;0,25
2019-05-11 02:45;0,2
2019-05-11 03:00;0
2019-05-11 03:15;0,05
2019-05-11 03:30;0
2019-05-11 03:45;0
2019-05-11 04:00;0
2019-05-11 04:15;0
2019-05-11 04:30;0
2019-05-11 04:45;0
2019-05-11 05:00;0
2019-05-11 05:15;0
2019-05-11 05:30;0
2019-05-11 05:45;0
2019-05-11 06:00;0
2019-05-11 06:15;0
2019-05-11 06:30;0
2019-05-11 06:45;0
2019-05-11 07:00;0
2019-05-11 07:15;0,85
2019-05-11 07:30;1,1
2019-05-11 07:45;0,95
2019-05-11 08:00;0,8
2019-05-11 08:15;1,6
2019-05-11 08:30;0,9
2019-05-11 08:45;0,85
2019-05-11 09:00;0,6
2019-05-11 09:15;0,2
2019-05-11 09:30;0
2019-05-11 09:45;0
2019-05-11 10:00;0
2019-05-11 10:15;0
2019-05-11 10:30;0
2019-05-11 10:45;0
2019-05-11 11:00;0
2019-05-11 11:15;0
2019-05-11 11:30;0
2019-05-11 11:45;1,55
2019-05-11 12:00;3,15
2019-05-11 12:15;2,7
2019-05-11 12:30;2,95
2019-05-11 12:45;1,3
2019-05-11 13:00;0,05
2019-05-11 13:15;0,05
2019-05-11 13:30;0
2019-05-11 13:45;0,3
2019-05-11 14:00;1,65
2019-05-11 14:15;1,55
2019-05-11 14:30;1,65
2019-05-11 14:45;2,5
2019-05-11 15:00;2,75
2019-05-11 15:15;3,45
2019-05-11 15:30;4,8
2019-05-11 15:45;8,1
2019-05-11 16:00;8,15
2019-05-11 16:15;7,85
2019-05-11 16:30;8,4
2019-05-11 16:45;10,05
2019-05-11 17:00;13,8
2019-05-11 17:15;13,75
2019-05-11 17:30;14,6
2019-05-11 17:45;13,3
2019-05-11 18:00;10,2
2019-05-11 18:15;10,15
2019-05-11 18:30;9,75
2019-05-11 18:45;8,7
2019-05-11 19:00;4
2019-05-11 19:15;4,75
2019-05-11 19:30;4,95
2019-05-11 19:45;7,9
2019-05-11 20:00;7,95
2019-05-11 20:15;7,75
2019-05-11 20:30;4,85
2019-05-11 20:45;3,55
2019-05-11 21:00;3,6
2019-05-11 21:15;2,3
2019-05-11 21:30;1,8
2019-05-11 21:45;0
2019-05-11 22:00;0
2019-05-11 22:15;0
2019-05-11 22:30;0
2019-05-11 22:45;0
2019-05-11 23:00;0,15
2019-05-11 23:15;0
2019-05-11 23:30;0
2019-05-11 23:45;0,4
2019-05-12 00:00;0
2019-05-12 00:15;0
2019-05-12 00:30;0
2019-05-12 00:45;0,25
2019-05-12 01:00;0,95
2019-05-12 01:15;1,4
2019-05-12 01:30;1,8
2019-05-12 01:45;2,3
2019-05-12 02:00;4,35
2019-05-12 02:15;3
2019-05-12 02:30;1,4
2019-05-12 02:45;0
2019-05-12 03:00;0
2019-05-12 03:15;0
2019-05-12 03:30;0,9
2019-05-12 03:45;1,5
2019-05-12 04:00;1,95
2019-05-12 04:15;1
2019-05-12 04:30;0,95
2019-05-12 04:45;0,8
2019-05-12 05:00;0,9
2019-05-12 05:15;0,9
2019-05-12 05:30;0,95
2019-05-12 05:45;0
2019-05-12 06:00;0
2019-05-12 06:15;0
2019-05-12 06:30;0
2019-05-12 06:45;0
2019-05-12 07:00;0
2019-05-12 07:15;1,2
2019-05-12 07:30;3,7
2019-05-12 07:45;2,4
2019-05-12 08:00;3,2
2019-05-12 08:15;2,2
2019-05-12 08:30;2,05
2019-05-12 08:45;1,9
2019-05-12 09:00;1
2019-05-12 09:15;0,6
2019-05-12 09:30;0,5
2019-05-12 09:45;0,1
2019-05-12 10:00;1
2019-05-12 10:15;1,95
2019-05-12 10:30;1,95
2019-05-12 10:45;1,8
2019-05-12 11:00;1,6
2019-05-12 11:15;1,65
2019-05-12 11:30;1,25
2019-05-12 11:45;1,2
2019-05-12 12:00;1,9
2019-05-12 12:15;3,15
2019-05-12 12:30;5,35
2019-05-12 12:45;5,8
2019-05-12 13:00;5,75
2019-05-12 13:15;3,3
2019-05-12 13:30;4,75
2019-05-12 13:45;3,2
2019-05-12 14:00;3,6
2019-05-12 14:15;4,25
2019-05-12 14:30;4,8
2019-05-12 14:45;5,8
2019-05-12 15:00;5,65
2019-05-12 15:15;5,6
2019-05-12 15:30;6,4
2019-05-12 15:45;6
2019-05-12 16:00;6,25
2019-05-12 16:15;6,45
2019-05-12 16:30;7,15
2019-05-12 16:45;7,6
2019-05-12 17:00;8,35
2019-05-12 17:15;9
2019-05-12 17:30;8,6
2019-05-12 17:45;8,5
2019-05-12 18:00;12,3
2019-05-12 18:15;10,2
2019-05-12 18:30;10,8
2019-05-12 18:45;8,3
2019-05-12 19:00;5,7
2019-05-12 19:15;2,1
2019-05-12 19:30;1,25
2019-05-12 19:45;2,3
2019-05-12 20:00;1,95
2019-05-12 20:15;2
2019-05-12 20:30;1,15
2019-05-12 20:45;0,55
2019-05-12 21:00;0,3
2019-05-12 21:15;0
2019-05-12 21:30;0,1
2019-05-12 21:45;0,1
2019-05-12 22:00;0
2019-05-12 22:15;0
2019-05-12 22:30;0,5
2019-05-12 22:45;0,3
2019-05-12 23:00;1,2
2019-05-12 23:15;2,9
2019-05-12 23:30;2,25
2019-05-12 23:45;2,4

